Flag for Brazil Weather past 2 weeks in Salvador, Bahia, Brazil

Now
75 °F

Passing clouds.


Feels Like: 75 °F
Forecast: 75 / 81 °F
Wind: 12 mph from East

Location: Salvador Aeroporto

Current Time: Jul 25, 2014 at 1:08:45 AM

Latest Report: Jul 25, 2014 at 12:00 AM


Visibility: N/A

Pressure: 30.07 "Hg

Humidity: 89%

Dew point: 72 °F

Location of SalvadorLocation

Historic Weather in Salvador — Graph

°F

Salvador temperature yesterday

Maximum temperature yesterday: 81 °F (at 9:00 AM)
Minimum temperature yesterday: 73 °F (at 2:00 AM)
Average temperature yesterday: 77 °F

Past Weeks' High & Low Weather Summary

 TemperatureHumidityPressure
High84 °F (Jul 12, 4:00 PM)100% (Jul 15, 2:00 PM)30.21 "Hg (Jul 15, 2:00 PM)
Low41 °F (Jul 15, 2:00 PM)62% (Jul 11, 2:00 PM)29.98 "Hg (Jul 10, 4:00 PM)
Average77 °F79%30.10 "Hg
* Reported Midnight between Jul 9 and Jul 10 — Midnight between Jul 24 and Jul 25, Salvador, Weather by CustomWeather, © 2014

Note: Actual official high and low records may vary slightly from our data, if they occured in-between our weather recording intervals... More about our weather records

Advertising

Salvador weather history for previous 24 hours

 ConditionsComfort  
Time TempWeatherWind HumidityBarometerVisibility
12:00 AM
Jul 25
75 °FPassing clouds.12 mph89%30.07 "HgN/A
11:00 PM
Jul 24
75 °FPartly cloudy.8 mph89%30.09 "HgN/A
10:00 PM75 °FPartly cloudy.6 mph89%30.09 "HgN/A
9:00 PM77 °FPassing clouds.9 mph83%30.09 "HgN/A
8:00 PM75 °FPassing clouds.7 mph89%30.07 "HgN/A
7:00 PM75 °FLight rain. Passing clouds.3 mph89%N/A4 mi
6:00 PM73 °FPassing clouds.5 mph94%30.04 "Hg5 mi
5:00 PM73 °FPartly sunny.3 mph89%30.04 "Hg5 mi
4:00 PMN/ALight rain.5 mphN/AN/A2 mi
3:00 PM77 °FPartly sunny.9 mph79%30.04 "HgN/A
2:00 PM81 °FBroken clouds.12 mph70%30.04 "HgN/A
1:00 PM79 °FScattered clouds.17 mph79%30.07 "HgN/A
12:00 PM81 °FScattered clouds.16 mph74%30.09 "HgN/A
11:00 AM81 °FScattered clouds.12 mph74%30.12 "HgN/A
10:00 AM81 °FScattered clouds.13 mph70%30.12 "HgN/A
9:00 AM81 °FScattered clouds.13 mph70%30.12 "HgN/A
8:00 AM79 °FScattered clouds.13 mph74%30.12 "HgN/A
7:00 AM77 °FBroken clouds.13 mph79%30.09 "HgN/A
6:00 AM77 °FBroken clouds.12 mph79%30.07 "Hg5 mi
5:00 AM75 °FPartly cloudy.14 mph83%30.07 "HgN/A
4:00 AM75 °FPassing clouds.17 mph83%30.07 "HgN/A
3:00 AM75 °FPartly cloudy.12 mph83%30.07 "Hg6 mi
2:00 AM73 °FPartly cloudy.8 mph89%30.07 "Hg6 mi
1:00 AMN/ALight rain.12 mphN/AN/A4 mi
Weather by CustomWeather, © 2014

See weather overviewHow to use our weather pages